This demonstration page uses our WeatherBlox Daily Observations layout. Learn more.

Left ArrowRight Arrow

44.8408, -93.29828

Hourly Observations for September 17, 2018

Temp ( °F °C ) Dew Point ( °F °C ) Humidity (%) Winds ( mph kmh ) Pressure ( in mb ) Visibility ( mi km ) Precip ( " mm )
12:53 am 00:53 Clear 79 26.1 63 17.2 58 58 SSW 12 19 29.85 1011 10 16 0.00 0.00
1:53 am 01:53 Clear 77 25 63 17.2 62 62 SW 9 15 29.85 1011 10 16 0.00 0.00
2:53 am 02:53 Partly Cloudy 76 24.4 63 17.2 64 64 SSW 8 13 29.86 1011 10 16 0.00 0.00
3:53 am 03:53 Cloudy 76 24.4 64 17.8 67 67 S 5 7 29.85 1011 10 16 0.00 0.00
4:53 am 04:53 Mostly Cloudy 76 24.4 64 17.8 67 67 SW 7 11 29.85 1011 10 16 0.00 0.00
5:53 am 05:53 Mostly Cloudy 75 23.9 65 18.3 71 71 WSW 9 15 29.85 1011 10 16 0.00 0.00
6:53 am 06:53 Mostly Clear 73 22.8 65 18.3 76 76 W 7 11 29.87 1011 10 16 0.00 0.00
7:53 am 07:53 Mostly Sunny 72 22.2 65 18.3 79 79 NW 7 11 29.88 1012 10 16 0.00 0.00
8:53 am 08:53 Mostly Sunny 74 23.3 64 17.8 71 71 NNW 10 17 29.89 1012 9 14 0.00 0.00
9:53 am 09:53 Mostly Sunny 76 24.4 65 18.3 69 69 N 9 15 29.90 1012 10 16 0.00 0.00
10:53 am 10:53 Mostly Sunny 78 25.6 64 17.8 62 62 NE 8 13 29.89 1012 10 16 0.00 0.00
11:53 am 11:53 Partly Cloudy 80 26.7 63 17.2 56 56 NNW 10 17 29.90 1013 10 16 0.00 0.00
12:53 pm 12:53 Mostly Cloudy 78 25.6 63 17.2 60 60 N 5 7 29.90 1013 10 16 0.00 0.00
1:53 pm 13:53 Cloudy with Nearby Thunderstorms 73 22.8 60 15.6 64 64 NNW 30 48 29.96 1014 10 16 0.00 0.00
2:05 pm 14:05 Cloudy with Nearby Thunderstorms 69 20.6 57 13.9 66 66 WNW 35 56 30.00 1016 10 16 0.00 0.03
2:10 pm 14:10 Cloudy with Strong Thunderstorms 66 18.9 58 14.4 75 75 NW 24 39 30.03 1017 8 13 0.01 0.25
2:35 pm 14:35 Cloudy with Nearby Thunderstorms 62 16.7 60 15.6 93 93 N 14 22 30.00 1016 8 13 0.16 4.06
2:53 pm 14:53 Cloudy with Nearby Thunderstorms 63 17.2 60 15.6 90 90 W 9 15 30.04 1017 9 14 0.17 4.32
3:16 pm 15:16 Windy with Storms Likely 62 16.7 61 16.1 96 96 WNW 20 31 30.03 1017 4 6 0.12 3.05
3:20 pm 15:20 Cloudy with Thunderstorms 62 16.7 60 15.6 93 93 N 14 22 30.00 1016 3 4 0.14 3.56
3:25 pm 15:25 Cloudy with Thunderstorms 61 16.1 60 15.6 97 97 WNW 15 24 30.03 1017 4 6 0.21 5.33
3:45 pm 15:45 Cloudy with Rain 60 15.6 59 15 96 96 NNE 12 19 29.97 1015 4 6 0.40 10.16
3:53 pm 15:53 Cloudy with Rain 60 15.6 60 15.6 100 100 ENE 13 20 29.97 1015 5 8 0.43 10.92
4:53 pm 16:53 Cloudy with Light Rain 63 17.2 60 15.6 90 90 E 9 15 29.90 1013 10 16 0.02 0.51
5:53 pm 17:53 Cloudy with Light Rain 63 17.2 61 16.1 93 93 E 7 11 29.88 1012 9 14 0.04 1.02
6:53 pm 18:53 Partly Cloudy 63 17.2 61 16.1 93 93 S 6 9 29.89 1012 10 16 0.01 0.25
7:53 pm 19:53 Mostly Clear 62 16.7 59 15 90 90 Calm 29.94 1014 10 16 0.00 0.00
8:53 pm 20:53 Mostly Cloudy 62 16.7 61 16.1 96 96 N 7 11 29.96 1015 10 16 0.00 0.00
8:55 pm 20:55 Cloudy 62 16.7 61 16.1 96 96 N 8 13 29.94 1014 10 16 0.00 0.00
9:22 pm 21:22 Partly Cloudy 61 16.1 60 15.6 97 97 NNE 8 13 29.94 1014 10 16 0.00 0.00
9:53 pm 21:53 Partly Cloudy 61 16.1 60 15.6 97 97 N 7 11 29.96 1015 10 16 0.00 0.00
10:53 pm 22:53 Mostly Cloudy 61 16.1 60 15.6 97 97 N 3 6 29.97 1015 10 16 0.00 0.00
11:01 pm 23:01 Mostly Cloudy with Nearby Thunderstorms 61 16.1 60 15.6 97 97 N 3 6 29.94 1014 10 16 0.00 0.00
11:25 pm 23:25 Cloudy with Nearby Thunderstorms 61 16.1 60 15.6 97 97 N 5 7 29.94 1014 10 16 0.00 0.00
11:40 pm 23:40 Cloudy with Nearby Thunderstorms 61 16.1 60 15.6 97 97 NNE 6 9 29.94 1014 10 16 0.00 0.00
11:53 pm 23:53 Cloudy with Nearby Thunderstorms 61 16.1 60 15.6 97 97 NNE 3 6 29.97 1015 10 16 0.00 0.00

Powered by AerisWeather